Location: ??????
(56.0120°N, 39.1740°E)
Time: 21:38:28
(UTC+00:00)

GP-B - Pass Details

Date: 14 April 2026
Orbit: 617 x 621 km, 89.9° (Epoch: 11 May)

Event Time Altitude Azimuth Distance (km) Brightness Sun altitude
Rises 23:14:38 0° 360° (N) 2,911 7.5 -20.4°
Reaches altitude 10° 23:16:51 10° 359° (N) 2,000 6.5 -20.2°
Maximum altitude 23:21:15 81° 273° (W) 635 3.0 -19.9°
Enters shadow 23:22:25 48° 194° (SSW) 811 3.2 -19.8°
